Location: Vigo di Fassa
(46.4167°N, 11.6667°E)
Time: 18:25:29
(UTC+00:00)

CSL-04 Debris - Pass Details

Date: 03 March 2021
Orbit: 826 x 848 km, 98.9° (Epoch: 15 April)

Event Time Altitude Azimuth Distance (km) Brightness Sun altitude
Rises 18:22:40 0° 168° (SSE) 3,370 7.1 -14.6°
Reaches altitude 10° 18:25:01 10° 170° (S) 2,443 6.4 -15.0°
Maximum altitude 18:30:26 76° 256° (WSW) 870 4.4 -15.9°
Drops below altitude 10° 18:35:56 10° 343° (NNW) 2,475 7.0 -16.9°
Sets 18:38:19 0° 345° (NNW) 3,417 7.7 -17.3°
